Waterloo, IA

7:05 AM CDT on March 23, 2017 (GMT -0500)
Waterloo Municipal

Weather History for KALO - November, 2013

Change the Weather History Date:

Monday, November 18, 2013

  Actual Average Record
Temperature  
Mean Temperature 30 °F 35 °F  
Max Temperature 41 °F 44 °F 73 °F (1999)
Min Temperature 19 °F 26 °F 4 °F (2014)
Degree Days  
Heating Degree Days 35 30  
Month to date heating degree days 500 454  
Since 1 July heating degree days 1100 1077  
Cooling Degree Days 0 0  
Month to date cooling degree days 0 0  
Year to date cooling degree days 837 799  
Moisture  
Dew Point 26 °F    
Average Humidity 74    
Maximum Humidity 96    
Minimum Humidity 51    
Precipitation  
Precipitation 0.00 in 0.07 in 0.75 in (1957)
Month to date precipitation 1.75 1.29  
Year to date precipitation 39.66 32.68  
Snow  
Snow 0.00 in 0.10 in 6.40 in (1957)
Month to date snowfall 1.0 1.1  
Since 1 July snowfall 2.0 1.4  
Since 1 September snowfall 2.0 1.4  
Snow Depth 0.00 in    
Sea Level Pressure  
Sea Level Pressure 30.13 in    
Wind  
Wind Speed 10 mph (WNW)    
Max Wind Speed 23 mph    
Max Gust Speed 31 mph    
Visibility 10 miles    
Events      
T = Trace of Precipitation, MM = Missing Value Source: NWS Daily Summary

Daily Weather History Graph

Daily Weather History Graph

Search for Another Location

Airport or City:

Trip Planner

Search our weather history database for the weather conditions in past years. The results will help you decide how hot, cold, wet, or windy it might be!

Date:

Astronomy

Nov. 18, 2013 Rise Set
Actual Time 7:04 AM CST 4:44 PM CST
Civil Twilight 6:34 AM CST 5:14 PM CST
Nautical Twilight 6:00 AM CST 5:49 PM CST
Astronomical Twilight 5:26 AM CST 6:22 PM CST
Moon 5:46 PM CST (11/18) 7:54 AM CST (11/18)
Length of Visible Light 10h 40m
Length of Day
9h 39m
Full, 99% of the Moon is Illuminated
Nov 18
Full
Nov 25
Last Quarter
Dec 2
New
Dec 9
First Quarter
Dec 17
Full

Hourly Weather History & Observations

Time (CST) Temp. Windchill Dew Point Humidity Pressure Visibility Wind Dir Wind Speed Gust Speed Precip Events Conditions
12:05 AM 37.4 °F 29.8 °F 32.0 °F 81% 29.89 in 10.0 mi WNW 11.5 mph 21.9 mph N/A   Mostly Cloudy
12:39 AM 37.4 °F 29.3 °F 32.0 °F 81% 29.88 in 10.0 mi NW 12.7 mph 19.6 mph N/A   Mostly Cloudy
12:54 AM 37.9 °F 30.5 °F 32.0 °F 79% 29.91 in 10.0 mi WNW 11.5 mph - N/A   Mostly Cloudy
1:54 AM 37.0 °F 29.3 °F 32.0 °F 82% 29.93 in 10.0 mi WNW 11.5 mph - N/A   Partly Cloudy
2:54 AM 36.0 °F 29.0 °F 32.0 °F 86% 29.95 in 10.0 mi WNW 9.2 mph - N/A   Overcast
3:54 AM 35.1 °F 26.9 °F 28.9 °F 78% 29.98 in 10.0 mi WNW 11.5 mph 24.2 mph N/A   Mostly Cloudy
4:13 AM 35.6 °F 25.2 °F 28.4 °F 75% 29.97 in 10.0 mi WNW 18.4 mph 26.5 mph N/A   Overcast
4:54 AM 35.1 °F 26.4 °F 28.0 °F 76% 30.00 in 10.0 mi WNW 12.7 mph 20.7 mph N/A   Overcast
5:54 AM 35.1 °F 26.4 °F 27.0 °F 72% 30.02 in 10.0 mi WNW 12.7 mph 23.0 mph N/A   Overcast
6:37 AM 33.8 °F 23.2 °F 26.6 °F 75% 30.02 in 10.0 mi NW 17.3 mph 25.3 mph N/A   Partly Cloudy
6:54 AM 33.1 °F 21.9 °F 26.1 °F 75% 30.05 in 10.0 mi NW 18.4 mph 31.1 mph N/A   Clear
7:35 AM 32.0 °F 21.6 °F 26.6 °F 80% 30.05 in 10.0 mi NW 15.0 mph 21.9 mph N/A   Mostly Cloudy
7:54 AM 32.0 °F 21.2 °F 26.1 °F 79% 30.09 in 10.0 mi NW 16.1 mph - N/A   Overcast
8:54 AM 33.1 °F 22.6 °F 26.1 °F 75% 30.12 in 10.0 mi WNW 16.1 mph 24.2 mph N/A   Mostly Cloudy
9:32 AM 35.6 °F 24.8 °F 26.6 °F 70% 30.11 in 10.0 mi WNW 19.6 mph 29.9 mph N/A   Scattered Clouds
9:44 AM 35.6 °F 24.8 °F 26.6 °F 70% 30.12 in 10.0 mi WNW 19.6 mph 29.9 mph N/A   Mostly Cloudy
9:54 AM 36.0 °F 25.0 °F 27.0 °F 70% 30.15 in 10.0 mi WNW 20.7 mph 28.8 mph N/A   Mostly Cloudy
10:24 AM 37.4 °F 27.2 °F 26.6 °F 65% 30.14 in 10.0 mi WNW 19.6 mph 26.5 mph N/A   Scattered Clouds
10:54 AM 37.0 °F 27.0 °F 25.0 °F 62% 30.17 in 10.0 mi NW 18.4 mph 29.9 mph N/A   Partly Cloudy
11:54 AM 39.0 °F 29.9 °F 27.0 °F 62% 30.17 in 10.0 mi WNW 17.3 mph 23.0 mph N/A   Partly Cloudy
12:54 PM 39.0 °F 31.0 °F 25.0 °F 57% 30.19 in 10.0 mi WNW 13.8 mph 26.5 mph N/A   Clear
1:54 PM 39.9 °F 31.8 °F 25.0 °F 55% 30.19 in 10.0 mi WNW 15.0 mph 24.2 mph N/A   Clear
2:54 PM 41.0 °F 32.8 °F 25.0 °F 53% 30.20 in 10.0 mi WNW 16.1 mph 23.0 mph N/A   Clear
3:54 PM 39.0 °F 31.4 °F 25.0 °F 57% 30.22 in 10.0 mi NW 12.7 mph 20.7 mph N/A   Clear
4:54 PM 35.1 °F 31.0 °F 25.0 °F 67% 30.23 in 10.0 mi WNW 4.6 mph - N/A   Clear
5:54 PM 33.1 °F 28.7 °F 25.0 °F 72% 30.25 in 10.0 mi WNW 4.6 mph - N/A   Clear
6:54 PM 28.9 °F - 24.1 °F 82% 30.26 in 10.0 mi Calm Calm - N/A   Clear
7:54 PM 28.9 °F - 25.0 °F 85% 30.28 in 10.0 mi Calm Calm - N/A   Clear
8:54 PM 23.0 °F - 21.0 °F 92% 30.29 in 10.0 mi Calm Calm - N/A   Clear
9:54 PM 24.1 °F - 21.9 °F 91% 30.30 in 10.0 mi Calm Calm - N/A   Clear
10:54 PM 21.9 °F - 19.9 °F 92% 30.31 in 10.0 mi Calm Calm - N/A   Clear
11:54 PM 21.9 °F - 19.9 °F 92% 30.32 in 9.0 mi Calm Calm - N/A   Clear